Skip Page Navigation
NASA JPL Caltech
NASA Logo - Jet Propulsion Laboratory + View the NASA Portal
+ Center for Near-Earth Object Studies
JPL Home Earth Solar System Stars & Galaxies Technology
JPL Solar System Dynamics
BODIES ORBITS EPHEMERIDES TOOLS PHYSICAL DATA DISCOVERY FAQ SITE MAP
JPL Small-Body Database Browser
Search: [ help ]  
70236 (1999 RL67)
Classification: Main-belt Asteroid          SPK-ID: 2070236
Ephemeris | Orbit Diagram | Orbital Elements | Mission Design | Physical Parameters | Discovery Circumstances | Close-Approach Data ]

[ show orbit diagram ]
Orbital Elements at Epoch 2459000.5 (2020-May-31.0) TDB
Reference: JPL 26 (heliocentric ecliptic J2000)
 Element Value Uncertainty (1-sigma)   Units 
e .1368009662868526 3.7054e-08  
a 2.434598714251598 8.1702e-09 au
q 2.10154325762125 8.9071e-08 au
i 1.794138171266036 3.3316e-06 deg
node 237.3841380942307 0.00012934 deg
peri 241.8317283396029 0.00012999 deg
M 40.08564982610243 1.2077e-05 deg
tp 2458846.000906041350
(2019-Dec-28.50090604)
4.6564e-05 TDB
period 1387.520822698413
3.80
6.9845e-06
1.912e-08
d
yr
n .2594555657189213 1.306e-09 deg/d
Q 2.767654170881946 9.2879e-09 au
  Orbit Determination Parameters
   # obs. used (total)      1214  
   data-arc span      9519 days (26.06 yr)  
   first obs. used      1994-05-03  
   last obs. used      2020-05-25  
   planetary ephem.      DE431  
   SB-pert. ephem.      SB431-N16  
   condition code      0  
   norm. resid. RMS      .5079  
   source      ORB  
   producer      Otto Matic  
   solution date      2020-Nov-12 22:01:33  

Additional Information
 Earth MOID = 1.11832 au 
 Jupiter MOID = 2.3108 au 
 T_jup = 3.492 
[ show covariance matrix ]

Ephemeris | Orbit Diagram | Orbital Elements | Mission Design | Physical Parameters | Discovery Circumstances | Close-Approach Data ]

Physical Parameter Table
Parameter Symbol Value Units Sigma Reference Notes
absolute magnitude H 15.1   n/a MPO302438  

70236 (1999 RL67)          Discovered 1999-Sep-07 by LINEAR at Socorro
Reference: 20031109/Numbers.arcLast Updated: 2004-04-19

[ show close-approach data ]
Alternate Designations
 1999 RL67 = 1999 TS128 = 2001 AL16 
Ephemeris | Orbit Diagram | Orbital Elements | Mission Design | Physical Parameters | Discovery Circumstances | Close-Approach Data ]
ABOUT SSD CREDITS/AWARDS PRIVACY/COPYRIGHT GLOSSARY LINKS
FirstGov 2021-Jan-27 21:18 UT
(server date/time)  
NASA Home Page
Site Manager:   Ryan S. Park
Webmaster  Alan B. Chamberlin